Simultaneous Nadir Overpasses (SNOs) Predictions

Prediction of SNOs between GOES-17 and METOP-B Satellite Orbit:

Table of predicted SNOs for the next 14.0 days since TLE Epoch: 2/17/2024
Index Date Time (GOES-17) GOES-17 Lat,Lon METOP-B Lat,Lon Distance(km) Time Diff (sec)
1 02/17/2024 04:14:48 0.00,-104.68 0.53,-102.44 256.06 8
2 02/18/2024 16:32:29 -0.00,-104.69 0.50,-107.02 265.54 80
3 02/19/2024 16:14:31 -0.00,-104.68 -0.59,-102.03 302.28 80
4 02/21/2024 04:33:33 0.00,-104.68 -0.43,-106.65 224.13 80
5 02/22/2024 04:10:15 0.01,-104.67 0.67,-101.66 343.54 80
6 02/23/2024 16:29:08 -0.00,-104.68 0.35,-106.23 177.74 80
7 02/24/2024 16:11:10 -0.01,-104.68 -0.75,-101.25 390.52 80
8 02/26/2024 04:30:12 0.01,-104.68 -0.25,-105.87 134.79 80
9 02/27/2024 04:06:53 0.01,-104.68 0.86,-100.88 433.28 80
10 02/28/2024 16:25:47 -0.01,-104.68 0.16,-105.46 87.88 80
11 02/29/2024 16:07:48 -0.01,-104.69 -0.96,-100.47 480.48 80
